Hourly Data Report for September 20, 2017

All times are specified in Local Standard Time (LST). Add 1 hour to adjust for Daylight Saving Time where and when it is observed.

PORT ALBERNI (AUT)
BRITISH COLUMBIA

49°18'59.700" N
124°55'36.600" W
76.20 m
1036B06
71475
WQC

Related Data

No related data is available for this station

Download Data

Hourly Data (September 2017)
Hourly Data Report for September 20, 2017
Temp Definition
°C
Dew Point Temp Definition
°C
Rel Hum Definition
%
Wind Dir Definition
10's deg

Wind Spd Definition
km/h
Visibility Definition
km
Stn Press Definition
kPa
Hmdx Definition


Wind Chill Definition


Weather Definition


TIME
00:00 6.1 5.6 96 36 2   99.66     LegendNANA
01:00 4.0 3.6 97 31 2   99.63     LegendNANA
02:00 5.9 5.7 99 30 6   99.60     LegendNANA
03:00 6.0 5.6 98 31 3   99.62     LegendNANA
04:00 6.1 5.5 96 31 8   99.62     LegendNANA
05:00 6.2 5.6 96 33 4   99.66     LegendNANA
06:00 6.5 6.2 98 33 2   99.66     LegendNANA
07:00 6.9 6.5 98 33 3   99.68     LegendNANA
08:00 7.7 7.3 97 35 2   99.69     LegendNANA
09:00 9.5 6.8 83 15 3   99.72     LegendNANA
10:00 11.1 7.3 77 2 3   99.72     LegendNANA
11:00 12.2 6.8 69 31 4   99.74     LegendNANA
12:00 14.4 5.9 57 8 4   99.74     LegendNANA
13:00 15.5 5.0 50 6 3   99.70     LegendNANA
14:00 16.9 5.4 47 22 5   99.69     LegendNANA
15:00 17.7 4.9 43 9 3   99.69     LegendNANA
16:00 18.7 4.6 39 16 5   99.70     LegendNANA
17:00 17.0 6.7 51 4 7   99.75     LegendNANA
18:00 14.6 7.5 62 11 8   99.79     LegendNANA
19:00 12.5 7.5 72 10 8   99.87     LegendNANA
20:00 12.3 7.3 72 12 11   99.93     LegendNANA
21:00 11.3 6.6 73 13 6   99.98     LegendNANA
22:00 8.4 6.7 89 30 2   100.01     LegendNANA
23:00 7.5 6.5 93 31 3   100.08     LegendNANA

Notes on Data Quality.

Legend

  • E = Estimated
  • M = Missing
  • NA = Not Available
  • ‡ = Partner data that is not subject to review by the National Climate Archives
Date modified: